User: anonymous   Login
Location: Unspecified
(0.0000°N, 0.0000°E)
Time: 00:06:45
(UTC+00:00)
Language:

SYRACUSE 3B - Orbit

View from above orbital plane
View from above orbital plane
View from above satellite
View from above satellite

Ground track
Ground track

The orbit data is extracted from the following two-line orbital elements,

1 29273U 06033B   18112.33257649 -.00000063 +00000-0 +00000-0 0  9997
2 29273 000.0044 197.8432 0004892 183.4126 303.6021 01.00271864042858
Epoch (UTC): 22 April 2018 07:58:54
Eccentricity: 0.0004892
inclination: 0.0044°
perigee height: 35765 km
apogee height: 35807 km
right ascension of ascending node: 197.8432°
argument of perigee: 183.4126°
revolutions per day: 1.00271864
mean anomaly at epoch: 303.6021°
orbit number at epoch: 4285

The dashed part of the orbit path shows where the satellite is in the earth's shadow,  

DLR